Showing default

GALILEO 20 (2C6), 43056

Orbit data source: Space-Track

GALILEO 20 (2C6), 43056 is a payload satellite owned by GNSS Agency (ESA) that was launched on Tue, 12 Dec 2017 UTC via an ARIANE 5ES launch vehicle from the French Guiana (FRGUI). Payload-class satellites include a variety of spacecraft equipped with specific instruments for various scientific and technological missions. These include communications satellites like Starlink; space stations such as the ISS; scientific satellites like the Hubble; Earth observation satellites from companies like Planet Labs, Umbra, and HawkEye 360; GPS; miniature CubeSats for education and research; and military/defense satellites.

Loading next visibility...
Identifier
43056, 2017-079B
Orbit
Active
Country
Flag of ESAESA
Related business
Manufacturer
OHB
Mission
Operational Civil Navigation
Bus & Motor
GALILEOSAT, AOCS
Mass
715 kg wet, 700 kg dry
Launch date (UTC)
2017-12-12 (9 years ago)
Launch vehicle
ARIANE 5ES
Launch site
French Guiana (FRGUI)
Object type
Payload
Rocket body
Debris
Shape & HBR
Box + 2 Pan, 7.3 m
Radar Cross Section
9.223 m², Large (>1 m²)

Expand to show TLE details & history
Last TLE update: 5 days ago

TLE from 5 days ago
0 GALILEO 20 (2C6)
1 43056U 17079B   26168.89331476  .00000034  00000-0  00000-0 0  9993
2 43056  55.0732 221.4873 0004317 276.2784  83.7610  1.70474666 53015
Epoch: 2026-06-17T21:26Z
TLE epoch observation values (Epoch: 2026-06-17T21:26:22.395Z)
Latitude
0.00006°
Longitude
-6.23548°
Altitude
23,220.982 km
Speed
3.67 km/s
True Right ascension
14h 46m 00s
True Declination
0° 00' 00"
Sunlit
Object was in daylight at epoch
Visualization orbit readout
Latitude
Unknown
Longitude
Unknown
Altitude
Unknown
Speed
Unknown
Apparent Right ascension
Unknown
Apparent Declination
Unknown
Sunlit
N/A
Visualization observer readout
Local Sidereal Time
21:41:19
Azimuth
Unknown
Elevation
Unknown
Doppler factor
Unknown
Orbital elements
Apogee altitude
23,234.89 km
Perigee altitude
23,209.333 km
Semi-major axis
29,600.249 km
Eccentricity
0.00043
Inclination
55.0732°
RAAN
221.4873°
Arg. of periapsis
276.2784°
True anomaly
83.81018°
Mean anomaly
83.761°
Eccentric anomaly
83.78559°
Mean motion
0.42619 °/min
Orbital period
844.7 mins
BSTAR
0
Loading maneuver chart data...
Computing Atmospheric mass density...
Loading historical data...
Loading historical data...
Loading historical data...
Loading historical data...
Loading historical data...
Loading historical data...
Loading historical data...
Other satellites on launch #79 in the year 2017 (2017-12-12 UTC)

Documentation

Showing up to 5 results
|